Overview Statistics Trail Chart Weather Telemetry Raw packets
 

This is the latest recevied weather packets stored in our database for station/object N7IGG. If no packets are shown the sender has not sent any weather packets the latest 10 day(s).

<< 55 56 57 58 59 60 61 >>
Time Temp. Humidity Pressure Rain* Wind** Luminosity Snow
1777789735 13.33° C 78% 1014.1 hPa 0 mm - 0 W/m² -
1777789434 13.89° C 77% 1014.1 hPa 0 mm - 0 W/m² -
1777789131 13.89° C 76% 1014.4 hPa 0 mm - 0 W/m² -
1777788828 14.44° C 75% 1014.3 hPa 0 mm - 0 W/m² -
1777788523 15° C 72% 1014.3 hPa 0 mm - 0 W/m² -
1777788218 15.56° C 68% 1014.2 hPa 0 mm - 0 W/m² -
1777787914 17.22° C 63% 1014.1 hPa 0 mm - 0 W/m² -
1777787610 17.22° C 60% 1013.9 hPa 0 mm - 0 W/m² -
1777787306 17.78° C 59% 1014 hPa 0 mm - 0 W/m² -
1777787002 17.78° C 60% 1014.1 hPa 0 mm - 0 W/m² -
1777786700 17.78° C 59% 1014 hPa 0 mm - 0 W/m² -
1777786398 17.78° C 58% 1014.1 hPa 0 mm - 0 W/m² -
1777786094 17.78° C 59% 1014.1 hPa 0 mm - 0 W/m² -
1777785791 17.78° C 59% 1014.1 hPa 0 mm - 0 W/m² -
1777785487 17.78° C 59% 1014.2 hPa 0 mm - 0 W/m² -
1777785184 17.78° C 58% 1013.9 hPa 0 mm - 0 W/m² -
1777784880 17.78° C 58% 1014 hPa 0 mm - 0 W/m² -
1777784576 18.33° C 57% 1014 hPa 0 mm - 0 W/m² -
1777784274 18.33° C 57% 1014.1 hPa 0 mm - 0 W/m² -
1777783972 18.33° C 57% 1014.1 hPa 0 mm - 0 W/m² -
1777783668 18.33° C 57% 1014 hPa 0 mm - 0 W/m² -
1777783365 18.33° C 56% 1014.1 hPa 0 mm - 0 W/m² -
1777783079 18.89° C 56% 1014 hPa 0 mm - 0 W/m² -
1777782760 18.89° C 56% 1013.8 hPa 0 mm - 0 W/m² -
1777782455 18.89° C 55% 1013.8 hPa 0 mm - 0 W/m² -

* Rain latest hour (hover to see other rain measurements)
** Current wind speed in m/s (hover to see current wind gust speed)